Regional Weather Roundup
Issued by NWS Cleveland, OH

Home | Current Version | Previous Version | Text Only | Print | Product List | Glossary Off
Versions: 1 2 3 4 5 6 7 8 9 10 11 12 13 14 15 16 17 18 19 20 21 22 23 24 25 26 27 28 29 30 31 32 33 34 35 36 37 38 39 40 41 42 43 44 45 46 47 48 49 50

000
ASUS41 KCLE 270412
RWRCLE
OHIO REGIONAL WEATHER ROUNDUP
NATIONAL WEATHER SERVICE WILMINGTON, OH
1100 PM EST SUN FEB 26 2017

NOTE: "FAIR" INDICATES FEW OR NO CLOUDS BELOW 12,000 FEET WITH NO
SIGNIFICANT WEATHER AND/OR OBSTRUCTIONS TO VISIBILITY.

OHZ001>008-015>018-024>027-034-035-043-044-270500-
   NORTHWEST OHIO

CITY           SKY/WX    TMP DP  RH WIND       PRES   REMARKS
DEFIANCE       FAIR      33  21  61 S9        30.11S WCI  25
FINDLAY        FAIR      35  22  58 S10       30.13R WCI  27
TOLEDO EXPRESS FAIR      37  21  52 SW13      30.10R
TOLEDO EXEC    FAIR      34  23  64 S9        30.12R WCI  27
LIMA           CLOUDY    37  21  52 S8        30.13S
$$

OHZ009>014-019>023-028>033-038-089-270500-
   NORTHEAST OHIO

CITY           SKY/WX    TMP DP  RH WIND       PRES   REMARKS
CLE-HOPKINS    FAIR      38  18  44 S14       30.16R
CLE-LAKEFRONT  FAIR      39  18  42 S15       30.13S
CUY CO. ARPT   PTCLDY    37  19  48 S16       30.14R
LORAIN-ELYRIA  FAIR      34  19  54 SW8       30.15R WCI  27
ASHTABULA      FAIR      35  19  52 SW10      30.15R WCI  27
AKRON-CANTON   FAIR      34  16  47 SW13      30.16R WCI  25
WOOSTER        FAIR      34  19  54 S9        30.16S WCI  27
MANSFIELD      FAIR      35  19  52 S13       30.14R WCI  26
YOUNGSTOWN     FAIR      32  16  51 S7        30.16S WCI  26
$$

OHZ042-051>053-060>062-070>072-077>081-270500-
  SOUTHWEST OHIO

CITY           SKY/WX    TMP DP  RH WIND       PRES   REMARKS
CINC-COVINGTON CLOUDY    40  19  43 S6        30.16R
CINC-LUNKEN    MOCLDY    39  23  52 CALM      30.19S
HAMILTON       FAIR      42  18  37 S3        30.19R
DAYTON         FAIR      38  17  42 S8        30.16S
WRIGHT-PAT AFB FAIR      38  17  43 CALM      30.16S
DAYTON GENERAL MOCLDY    36  19  50 S6        30.16R
WILMINGTON     MOCLDY    35  23  61 S6        30.17S
$$

OHZ036-037-039>041-045>050-054>059-063>069-073>076-082>088-270500-
  CENTRAL AND SOUTHEAST OHIO

CITY           SKY/WX    TMP DP  RH WIND       PRES   REMARKS
COLUMBUS       CLOUDY    40  19  43 SE6       30.17F
OSU AIRPORT    FAIR      38  20  48 S7        30.17S
BOLTON FIELD   FAIR      36  23  60 S5        30.18S
RICKENBACK AFB MOCLDY    38  21  49 S9        30.18S
NEWARK         MOCLDY    36  18  48 CALM      30.18S
MARION         FAIR      35  21  56 S10       30.16R WCI  27
LANCASTER      CLOUDY    40  20  44 SE5       30.19F
ZANESVILLE     FAIR      34  18  52 S5        30.19F WCI  30
NEW PHILLY     FAIR      32  21  64 SE5       30.20S WCI  27
$$




USA.gov is the U.S. government's official web portal to all federal, state and local government web resources and services.